Showing default

MEV-1, 44625

Orbit data source: Space-Track

MEV-1, 44625 is a payload satellite owned by Space Logistics (US) in GEO that was launched on Wed, 09 Oct 2019 UTC via a PROTON-M/BRIZ-M launch vehicle from the Tyuratam Missile And Space Complex (TTMTR). Payload-class satellites include a variety of spacecraft equipped with specific instruments for various scientific and technological missions. These include communications satellites like Starlink; space stations such as the ISS; scientific satellites like the Hubble; Earth observation satellites from companies like Planet Labs, Umbra, and HawkEye 360; GPS; miniature CubeSats for education and research; and military/defense satellites.

Not visible in the next 10 days
Identifier
44625, 2019-067B
Orbit
GEO
Country
Flag of USUS
Related business
Manufacturer
NGIS SSG
Mission
Operational Commercial Technology
Bus & Motor
GEOSTAR-3, IHI BT-4?
Mass
2,326 kg wet, ~2,000 kg dry
Launch date (UTC)
2019-10-09 (7 years ago)
Launch vehicle
PROTON-M/BRIZ-M
Launch site
Tyuratam Missile And Space Complex (TTMTR)
Object type
Payload
Rocket body
Debris
Shape & HBR
Box + 2 Pan, 22.5 m
Radar Cross Section
30.713 m², Large (>1 m²)

Expand to show TLE details & history
Last TLE update: 6 days ago

TLE from 6 days ago
0 MEV-1
1 44625U 19067B   26167.92963140 -.00000149  00000-0  00000-0 0  9995
2 44625   0.8740 268.9828 0002795 179.8034 307.2103  1.00269616 61745
Epoch: 2026-06-16T22:18Z
TLE epoch observation values (Epoch: 2026-06-16T22:18:40.152Z)
Latitude
0.71589°
Longitude
156.11879°
Altitude
35,779.437 km
Speed
3.075 km/s
True Right ascension
02h 23m 55s
True Declination
0° 42' 55"
Sunlit
Object was in daylight at epoch
Visualization orbit readout
Latitude
Unknown
Longitude
Unknown
Altitude
Unknown
Speed
Unknown
Apparent Right ascension
Unknown
Apparent Declination
Unknown
Sunlit
N/A
Visualization observer readout
Local Sidereal Time
21:40:52
Azimuth
Unknown
Elevation
Unknown
Doppler factor
Unknown
Orbital elements
Apogee altitude
35,800.059 km
Perigee altitude
35,776.488 km
Semi-major axis
42,166.41 km
Eccentricity
0.00028
Inclination
0.874°
RAAN
268.9828°
Arg. of periapsis
179.8034°
True anomaly
307.18479°
Mean anomaly
307.2103°
Eccentric anomaly
307.19754°
Mean motion
0.25066 °/min
Orbital period
1,436.18 mins
BSTAR
0
Loading maneuver chart data...
Computing Atmospheric mass density...
Loading historical data...
Loading historical data...
Loading historical data...
Loading historical data...
Loading historical data...
Loading historical data...
Loading historical data...
Other satellites on launch #67 in the year 2019 (2019-10-09 UTC)

Documentation

Showing up to 5 results
|